Location: Flensburg
(54.6357°N, 9.5142°E)
Time: 00:15:08
(UTC+01:00)

ISS - Pass Details

Date: 08 January 2018
Orbit: 401 x 406 km, 51.6° (Epoch: 17 January)

Event Time Altitude Azimuth Distance (km) Brightness Sun altitude
Exits shadow 06:40:33 31° 237° (WSW) 742 -2.9 -16.3°
Maximum altitude 06:41:32 40° 194° (SSW) 609 -3.0 -16.2°
Drops below altitude 10° 06:44:39 10° 122° (ESE) 1,466 0.2 -15.7°
Sets 06:46:48 0° 115° (ESE) 2,326 1.8 -15.4°
